Year,Month,Day,Hour,Minute,Value (Times are PST for temperature in C)
2010,12,22,00,00,9.60
2010,12,22,00,01,9.50
2010,12,22,00,02,9.50
2010,12,22,00,03,9.50
2010,12,22,00,04,9.40
2010,12,22,00,05,9.40
2010,12,22,00,06,9.30
2010,12,22,00,07,9.30
2010,12,22,00,08,9.30
2010,12,22,00,09,9.30
2010,12,22,00,10,9.30
2010,12,22,00,11,9.20
2010,12,22,00,12,9.20
2010,12,22,00,13,9.20
2010,12,22,00,14,9.20
2010,12,22,00,15,9.20
2010,12,22,00,16,9.20
2010,12,22,00,17,9.20
2010,12,22,00,18,9.10
2010,12,22,00,19,9.10
2010,12,22,00,20,9.10
2010,12,22,00,21,9.10
2010,12,22,00,22,9.00
2010,12,22,00,23,9.00
2010,12,22,00,24,9.00
2010,12,22,00,25,9.00
2010,12,22,00,26,9.00
2010,12,22,00,27,9.00
2010,12,22,00,28,9.00
2010,12,22,00,29,9.00
2010,12,22,00,30,9.00
2010,12,22,00,31,9.10
2010,12,22,00,32,9.10
2010,12,22,00,33,9.10
2010,12,22,00,34,9.10
2010,12,22,00,35,9.10
2010,12,22,00,36,9.00
2010,12,22,00,37,9.00
2010,12,22,00,38,9.00
2010,12,22,00,39,9.00
2010,12,22,00,40,9.00
2010,12,22,00,41,9.00
2010,12,22,00,42,9.00
2010,12,22,00,43,9.00
2010,12,22,00,44,9.00
2010,12,22,00,45,9.00
2010,12,22,00,46,9.00
2010,12,22,00,47,9.00
2010,12,22,00,48,9.00
2010,12,22,00,49,9.00
2010,12,22,00,50,9.00
2010,12,22,00,51,9.00
2010,12,22,00,52,9.00
2010,12,22,00,53,9.00
2010,12,22,00,54,9.00
2010,12,22,00,55,8.90
2010,12,22,00,56,8.90
2010,12,22,00,57,8.90
2010,12,22,00,58,8.90
2010,12,22,00,59,8.90
2010,12,22,01,00,8.90
2010,12,22,01,01,8.90
2010,12,22,01,02,8.90
2010,12,22,01,03,8.90
2010,12,22,01,04,8.90
2010,12,22,01,05,8.80
2010,12,22,01,06,8.80
2010,12,22,01,07,8.80
2010,12,22,01,08,8.80
2010,12,22,01,09,8.80
2010,12,22,01,10,8.80
2010,12,22,01,11,8.80
2010,12,22,01,12,8.80
2010,12,22,01,13,8.70
2010,12,22,01,14,8.70
2010,12,22,01,15,8.70
2010,12,22,01,16,8.70
2010,12,22,01,17,8.70
2010,12,22,01,18,8.70
2010,12,22,01,19,8.70
2010,12,22,01,20,8.80
2010,12,22,01,21,8.80
2010,12,22,01,22,8.80
2010,12,22,01,23,8.80
2010,12,22,01,24,8.80
2010,12,22,01,25,8.80
2010,12,22,01,26,8.70
2010,12,22,01,27,8.70
2010,12,22,01,28,8.70
2010,12,22,01,29,8.70
2010,12,22,01,30,8.70
2010,12,22,01,31,8.70
2010,12,22,01,32,8.70
2010,12,22,01,33,8.70
2010,12,22,01,34,8.70
2010,12,22,01,35,8.70
2010,12,22,01,36,8.70
2010,12,22,01,37,8.70
2010,12,22,01,38,8.70
2010,12,22,01,39,8.70
2010,12,22,01,40,8.70
2010,12,22,01,41,8.70
2010,12,22,01,42,8.70
2010,12,22,01,43,8.70
2010,12,22,01,44,8.70
2010,12,22,01,45,8.70
2010,12,22,01,46,8.70
2010,12,22,01,47,8.70
2010,12,22,01,48,8.70
2010,12,22,01,49,8.70
2010,12,22,01,50,8.70
2010,12,22,01,51,8.70
2010,12,22,01,52,8.70
2010,12,22,01,53,8.70
2010,12,22,01,54,8.60
2010,12,22,01,55,8.60
2010,12,22,01,56,8.60
2010,12,22,01,57,8.60
2010,12,22,01,58,8.60
2010,12,22,01,59,8.60
2010,12,22,02,00,8.60
2010,12,22,02,01,8.60
2010,12,22,02,02,8.60
2010,12,22,02,03,8.60
2010,12,22,02,04,8.60
2010,12,22,02,05,8.60
2010,12,22,02,06,8.60
2010,12,22,02,07,8.60
2010,12,22,02,08,8.50
2010,12,22,02,09,8.50
2010,12,22,02,10,8.50
2010,12,22,02,11,8.50
2010,12,22,02,12,8.50
2010,12,22,02,13,8.40
2010,12,22,02,14,8.40
2010,12,22,02,15,8.40
2010,12,22,02,16,8.40
2010,12,22,02,17,8.30
2010,12,22,02,18,8.30
2010,12,22,02,19,8.30
2010,12,22,02,20,8.30
2010,12,22,02,21,8.30
2010,12,22,02,22,8.30
2010,12,22,02,23,8.20
2010,12,22,02,24,8.20
2010,12,22,02,25,8.20
2010,12,22,02,26,8.20
2010,12,22,02,27,8.20
2010,12,22,02,28,8.20
2010,12,22,02,29,8.10
2010,12,22,02,30,8.10
2010,12,22,02,31,8.00
2010,12,22,02,32,8.00
2010,12,22,02,33,7.90
2010,12,22,02,34,7.80
2010,12,22,02,35,7.70
2010,12,22,02,36,7.60
2010,12,22,02,37,7.50
2010,12,22,02,38,7.40
2010,12,22,02,39,7.40
2010,12,22,02,40,7.30
2010,12,22,02,41,7.20
2010,12,22,02,42,7.20
2010,12,22,02,43,7.20
2010,12,22,02,44,7.10
2010,12,22,02,45,7.00
2010,12,22,02,46,7.00
2010,12,22,02,47,6.90
2010,12,22,02,48,6.90
2010,12,22,02,49,6.80
2010,12,22,02,50,6.80
2010,12,22,02,51,6.70
2010,12,22,02,52,6.70
2010,12,22,02,53,6.70
2010,12,22,02,54,6.60
2010,12,22,02,55,6.60
2010,12,22,02,56,6.50
2010,12,22,02,57,6.50
2010,12,22,02,58,6.40
2010,12,22,02,59,6.40
2010,12,22,03,00,6.40
2010,12,22,03,01,6.30
2010,12,22,03,02,6.30
2010,12,22,03,03,6.30
2010,12,22,03,04,6.20
2010,12,22,03,05,6.20
2010,12,22,03,06,6.10
2010,12,22,03,07,6.10
2010,12,22,03,08,6.10
2010,12,22,03,09,6.00
2010,12,22,03,10,6.00
2010,12,22,03,11,6.00
2010,12,22,03,12,5.90
2010,12,22,03,13,5.90
2010,12,22,03,14,5.90
2010,12,22,03,15,5.90
2010,12,22,03,16,5.90
2010,12,22,03,17,5.90
2010,12,22,03,18,5.90
2010,12,22,03,19,5.80
2010,12,22,03,20,5.80
2010,12,22,03,21,5.80
2010,12,22,03,22,5.80
2010,12,22,03,23,5.80
2010,12,22,03,24,5.70
2010,12,22,03,25,5.70
2010,12,22,03,26,5.70
2010,12,22,03,27,5.70
2010,12,22,03,28,5.70
2010,12,22,03,29,5.70
2010,12,22,03,30,5.70
2010,12,22,03,31,5.60
2010,12,22,03,32,5.60
2010,12,22,03,33,5.50
2010,12,22,03,34,5.40
2010,12,22,03,35,5.40
2010,12,22,03,36,5.40
2010,12,22,03,37,5.40
2010,12,22,03,38,5.30
2010,12,22,03,39,5.30
2010,12,22,03,40,5.30
2010,12,22,03,41,5.30
2010,12,22,03,42,5.30
2010,12,22,03,43,5.30
2010,12,22,03,44,5.30
2010,12,22,03,45,5.30
2010,12,22,03,46,5.30
2010,12,22,03,47,5.30
2010,12,22,03,48,5.30
2010,12,22,03,49,5.30
2010,12,22,03,50,5.30
2010,12,22,03,51,5.30
2010,12,22,03,52,5.30
2010,12,22,03,53,5.30
2010,12,22,03,54,5.30
2010,12,22,03,55,5.20
2010,12,22,03,56,5.20
2010,12,22,03,57,5.20
2010,12,22,03,58,5.20
2010,12,22,03,59,5.20
2010,12,22,04,00,5.20
2010,12,22,04,01,5.10
2010,12,22,04,02,5.10
2010,12,22,04,03,5.10
2010,12,22,04,04,5.10
2010,12,22,04,05,5.00
2010,12,22,04,06,5.00
2010,12,22,04,07,5.00
2010,12,22,04,08,4.90
2010,12,22,04,09,4.90
2010,12,22,04,10,4.90
2010,12,22,04,11,4.80
2010,12,22,04,12,4.80
2010,12,22,04,13,4.80
2010,12,22,04,14,4.80
2010,12,22,04,15,4.80
2010,12,22,04,16,4.70
2010,12,22,04,17,4.70
2010,12,22,04,18,4.70
2010,12,22,04,19,4.70
2010,12,22,04,20,4.70
2010,12,22,04,21,4.70
2010,12,22,04,22,4.70
2010,12,22,04,23,4.70
2010,12,22,04,24,4.70
2010,12,22,04,25,4.70
2010,12,22,04,26,4.70
2010,12,22,04,27,4.60
2010,12,22,04,28,4.70
2010,12,22,04,29,4.60
2010,12,22,04,30,4.70
2010,12,22,04,31,4.70
2010,12,22,04,32,4.70
2010,12,22,04,33,4.70
2010,12,22,04,34,4.70
2010,12,22,04,35,4.70
2010,12,22,04,36,4.70
2010,12,22,04,37,4.70
2010,12,22,04,38,4.70
2010,12,22,04,39,4.70
2010,12,22,04,40,4.70
2010,12,22,04,41,4.60
2010,12,22,04,42,4.60
2010,12,22,04,43,4.60
2010,12,22,04,44,4.60
2010,12,22,04,45,4.60
2010,12,22,04,46,4.60
2010,12,22,04,47,4.50
2010,12,22,04,48,4.50
2010,12,22,04,49,4.50
2010,12,22,04,50,4.50
2010,12,22,04,51,4.40
2010,12,22,04,52,4.40
2010,12,22,04,53,4.40
2010,12,22,04,54,4.40
2010,12,22,04,55,4.40
2010,12,22,04,56,4.30
2010,12,22,04,57,4.30
2010,12,22,04,58,4.30
2010,12,22,04,59,4.30
2010,12,22,05,00,4.30
2010,12,22,05,01,4.30
2010,12,22,05,02,4.40
2010,12,22,05,03,4.40
2010,12,22,05,04,4.50
2010,12,22,05,05,4.50
2010,12,22,05,06,4.50
2010,12,22,05,07,4.50
2010,12,22,05,08,4.60
2010,12,22,05,09,4.60
2010,12,22,05,10,4.60
2010,12,22,05,11,4.60
2010,12,22,05,12,4.50
2010,12,22,05,13,4.50
2010,12,22,05,14,4.40
2010,12,22,05,15,4.40
2010,12,22,05,16,4.40
2010,12,22,05,17,4.40
2010,12,22,05,18,4.30
2010,12,22,05,19,4.30
2010,12,22,05,20,4.30
2010,12,22,05,21,4.20
2010,12,22,05,22,4.20
2010,12,22,05,23,4.20
2010,12,22,05,24,4.20
2010,12,22,05,25,4.20
2010,12,22,05,26,4.20
2010,12,22,05,27,4.20
2010,12,22,05,28,4.20
2010,12,22,05,29,4.20
2010,12,22,05,30,4.20
2010,12,22,05,31,4.20
2010,12,22,05,32,4.20
2010,12,22,05,33,4.20
2010,12,22,05,34,4.20
2010,12,22,05,35,4.20
2010,12,22,05,36,4.20
2010,12,22,05,37,4.20
2010,12,22,05,38,4.20
2010,12,22,05,39,4.20
2010,12,22,05,40,4.20
2010,12,22,05,41,4.20
2010,12,22,05,42,4.20
2010,12,22,05,43,4.20
2010,12,22,05,44,4.20
2010,12,22,05,45,4.20
2010,12,22,05,46,4.20
2010,12,22,05,47,4.20
2010,12,22,05,48,4.20
2010,12,22,05,49,4.30
2010,12,22,05,50,4.20
2010,12,22,05,51,4.30
2010,12,22,05,52,4.30
2010,12,22,05,53,4.30
2010,12,22,05,54,4.30
2010,12,22,05,55,4.30
2010,12,22,05,56,4.20
2010,12,22,05,57,4.20
2010,12,22,05,58,4.20
2010,12,22,05,59,4.20
2010,12,22,06,00,4.10
2010,12,22,06,01,4.10
2010,12,22,06,02,4.10
2010,12,22,06,03,4.10
2010,12,22,06,04,4.00
2010,12,22,06,05,4.00
2010,12,22,06,06,3.90
2010,12,22,06,07,3.90
2010,12,22,06,08,3.90
2010,12,22,06,09,3.90
2010,12,22,06,10,3.90
2010,12,22,06,11,3.90
2010,12,22,06,12,3.90
2010,12,22,06,13,3.80
2010,12,22,06,14,3.80
2010,12,22,06,15,3.80
2010,12,22,06,16,3.80
2010,12,22,06,17,3.80
2010,12,22,06,18,3.80
2010,12,22,06,19,3.80
2010,12,22,06,20,3.70
2010,12,22,06,21,3.70
2010,12,22,06,22,3.70
2010,12,22,06,23,3.70
2010,12,22,06,24,3.70
2010,12,22,06,25,3.70
2010,12,22,06,26,3.70
2010,12,22,06,27,3.70
2010,12,22,06,28,3.70
2010,12,22,06,29,3.60
2010,12,22,06,30,3.60
2010,12,22,06,31,3.60
2010,12,22,06,32,3.60
2010,12,22,06,33,3.50
2010,12,22,06,34,3.50
2010,12,22,06,35,3.40
2010,12,22,06,36,3.40
2010,12,22,06,37,3.40
2010,12,22,06,38,3.40
2010,12,22,06,39,3.40
2010,12,22,06,40,3.30
2010,12,22,06,41,3.30
2010,12,22,06,42,3.30
2010,12,22,06,43,3.30
2010,12,22,06,44,3.20
2010,12,22,06,45,3.20
2010,12,22,06,46,3.20
2010,12,22,06,47,3.20
2010,12,22,06,48,3.20
2010,12,22,06,49,3.20
2010,12,22,06,50,3.20
2010,12,22,06,51,3.20
2010,12,22,06,52,3.20
2010,12,22,06,53,3.20
2010,12,22,06,54,3.20
2010,12,22,06,55,3.20
2010,12,22,06,56,3.20
2010,12,22,06,57,3.10
2010,12,22,06,58,3.10
2010,12,22,06,59,3.10
2010,12,22,07,00,3.10
2010,12,22,07,01,3.10
2010,12,22,07,02,3.10
2010,12,22,07,03,3.10
2010,12,22,07,04,3.10
2010,12,22,07,05,3.10
2010,12,22,07,06,3.10
2010,12,22,07,07,3.20
2010,12,22,07,08,3.20
2010,12,22,07,09,3.20
2010,12,22,07,10,3.20
2010,12,22,07,11,3.20
2010,12,22,07,12,3.20
2010,12,22,07,13,3.20
2010,12,22,07,14,3.10
2010,12,22,07,15,3.10
2010,12,22,07,16,3.10
2010,12,22,07,17,3.10
2010,12,22,07,18,3.20
2010,12,22,07,19,3.20
2010,12,22,07,20,3.20
2010,12,22,07,21,3.20
2010,12,22,07,22,3.20
2010,12,22,07,23,3.10
2010,12,22,07,24,3.10
2010,12,22,07,25,3.10
2010,12,22,07,26,3.10
2010,12,22,07,27,3.10
2010,12,22,07,28,3.00
2010,12,22,07,29,3.00
2010,12,22,07,30,3.00
2010,12,22,07,31,2.90
2010,12,22,07,32,2.90
2010,12,22,07,33,2.90
2010,12,22,07,34,2.90
2010,12,22,07,35,2.80
2010,12,22,07,36,2.80
2010,12,22,07,37,2.80
2010,12,22,07,38,2.80
2010,12,22,07,39,2.80
2010,12,22,07,40,2.70
2010,12,22,07,41,2.70
2010,12,22,07,42,2.60
2010,12,22,07,43,2.60
2010,12,22,07,44,2.60
2010,12,22,07,45,2.60
2010,12,22,07,46,2.60
2010,12,22,07,47,2.60
2010,12,22,07,48,2.60
2010,12,22,07,49,2.60
2010,12,22,07,50,2.50
2010,12,22,07,51,2.50
2010,12,22,07,52,2.50
2010,12,22,07,53,2.50
2010,12,22,07,54,2.50
2010,12,22,07,55,2.50
2010,12,22,07,56,2.50
2010,12,22,07,57,2.50
2010,12,22,07,58,2.40
2010,12,22,07,59,2.40
2010,12,22,08,00,2.40
2010,12,22,08,01,2.40
2010,12,22,08,02,2.40
2010,12,22,08,03,2.40
2010,12,22,08,04,2.40
2010,12,22,08,05,2.40
2010,12,22,08,06,2.40
2010,12,22,08,07,2.40
2010,12,22,08,08,2.40
2010,12,22,08,09,2.40
2010,12,22,08,10,2.40
2010,12,22,08,11,2.30
2010,12,22,08,12,2.30
2010,12,22,08,13,2.30
2010,12,22,08,14,2.30
2010,12,22,08,15,2.30
2010,12,22,08,16,2.30
2010,12,22,08,17,2.30
2010,12,22,08,18,2.30
2010,12,22,08,19,2.30
2010,12,22,08,20,2.30
2010,12,22,08,21,2.30
2010,12,22,08,22,2.30
2010,12,22,08,23,2.30
2010,12,22,08,24,2.30
2010,12,22,08,25,2.30
2010,12,22,08,26,2.30
2010,12,22,08,27,2.40
2010,12,22,08,28,2.50
2010,12,22,08,29,2.50
2010,12,22,08,30,2.60
2010,12,22,08,31,2.60
2010,12,22,08,32,2.70
2010,12,22,08,33,2.70
2010,12,22,08,34,2.70
2010,12,22,08,35,2.70
2010,12,22,08,36,2.70
2010,12,22,08,37,2.70
2010,12,22,08,38,2.70
2010,12,22,08,39,2.70
2010,12,22,08,40,2.60
2010,12,22,08,41,2.60
2010,12,22,08,42,2.60
2010,12,22,08,43,2.60
2010,12,22,08,44,2.60
2010,12,22,08,45,2.60
2010,12,22,08,46,2.60
2010,12,22,08,47,2.60
2010,12,22,08,48,2.70
2010,12,22,08,49,2.70
2010,12,22,08,50,2.70
2010,12,22,08,51,2.80
2010,12,22,08,52,2.80
2010,12,22,08,53,2.80
2010,12,22,08,54,2.80
2010,12,22,08,55,2.80
2010,12,22,08,56,2.80
2010,12,22,08,57,2.80
2010,12,22,08,58,2.80
2010,12,22,08,59,2.80
2010,12,22,09,00,2.80
2010,12,22,09,01,2.80
2010,12,22,09,02,2.80
2010,12,22,09,03,2.80
2010,12,22,09,04,2.80
2010,12,22,09,05,2.80
2010,12,22,09,06,2.80
2010,12,22,09,07,2.80
2010,12,22,09,08,2.80
2010,12,22,09,09,2.80
2010,12,22,09,10,2.80
2010,12,22,09,11,2.80
2010,12,22,09,12,2.80
2010,12,22,09,13,2.80
2010,12,22,09,14,2.80
2010,12,22,09,15,2.80
2010,12,22,09,16,2.80
2010,12,22,09,17,2.80
2010,12,22,09,18,2.90
2010,12,22,09,19,2.90
2010,12,22,09,20,2.90
2010,12,22,09,21,2.90
2010,12,22,09,22,2.90
2010,12,22,09,23,2.90
2010,12,22,09,24,3.00
2010,12,22,09,25,3.10
2010,12,22,09,26,3.10
2010,12,22,09,27,3.20
2010,12,22,09,28,3.30
2010,12,22,09,29,3.30
2010,12,22,09,30,3.30
2010,12,22,09,31,3.40
2010,12,22,09,32,3.40
2010,12,22,09,33,3.50
2010,12,22,09,34,3.50
2010,12,22,09,35,3.60
2010,12,22,09,36,3.60
2010,12,22,09,37,3.70
2010,12,22,09,38,3.80
2010,12,22,09,39,3.80
2010,12,22,09,40,3.90
2010,12,22,09,41,3.90
2010,12,22,09,42,3.90
2010,12,22,09,43,4.00
2010,12,22,09,44,4.00
2010,12,22,09,45,4.00
2010,12,22,09,46,4.00
2010,12,22,09,47,4.00
2010,12,22,09,48,4.00
2010,12,22,09,49,4.00
2010,12,22,09,50,4.10
2010,12,22,09,51,4.10
2010,12,22,09,52,4.20
2010,12,22,09,53,4.20
2010,12,22,09,54,4.30
2010,12,22,09,55,4.30
2010,12,22,09,56,4.40
2010,12,22,09,57,4.50
2010,12,22,09,58,4.50
2010,12,22,09,59,4.60
2010,12,22,10,00,4.70
2010,12,22,10,01,4.70
2010,12,22,10,02,4.80
2010,12,22,10,03,4.80
2010,12,22,10,04,4.90
2010,12,22,10,05,4.90
2010,12,22,10,06,5.00
2010,12,22,10,07,5.00
2010,12,22,10,08,5.00
2010,12,22,10,09,5.10
2010,12,22,10,10,5.10
2010,12,22,10,11,5.10
2010,12,22,10,12,5.20
2010,12,22,10,13,5.20
2010,12,22,10,14,5.30
2010,12,22,10,15,5.30
2010,12,22,10,16,5.30
2010,12,22,10,17,5.30
2010,12,22,10,18,5.30
2010,12,22,10,19,5.40
2010,12,22,10,20,5.40
2010,12,22,10,21,5.40
2010,12,22,10,22,5.40
2010,12,22,10,23,5.40
2010,12,22,10,24,5.40
2010,12,22,10,25,5.40
2010,12,22,10,26,5.40
2010,12,22,10,27,5.40
2010,12,22,10,28,5.50
2010,12,22,10,29,5.50
2010,12,22,10,30,5.60
2010,12,22,10,31,5.60
2010,12,22,10,32,5.70
2010,12,22,10,33,5.70
2010,12,22,10,34,5.70
2010,12,22,10,35,5.70
2010,12,22,10,36,5.70
2010,12,22,10,37,5.70
2010,12,22,10,38,5.70
2010,12,22,10,39,5.70
2010,12,22,10,40,5.80
2010,12,22,10,41,5.80
2010,12,22,10,42,5.80
2010,12,22,10,43,5.90
2010,12,22,10,44,5.90
2010,12,22,10,45,6.00
2010,12,22,10,46,6.00
2010,12,22,10,47,6.10
2010,12,22,10,48,6.20
2010,12,22,10,49,6.20
2010,12,22,10,50,6.30
2010,12,22,10,51,6.50
2010,12,22,10,52,6.60
2010,12,22,10,53,6.70
2010,12,22,10,54,6.80
2010,12,22,10,55,6.80
2010,12,22,10,56,6.90
2010,12,22,10,57,7.00
2010,12,22,10,58,7.10
2010,12,22,10,59,7.20
2010,12,22,11,00,7.30
2010,12,22,11,01,7.40
2010,12,22,11,02,7.60
2010,12,22,11,03,7.80
2010,12,22,11,04,7.90
2010,12,22,11,05,8.00
2010,12,22,11,06,8.10
2010,12,22,11,07,8.10
2010,12,22,11,08,8.20
2010,12,22,11,09,8.20
2010,12,22,11,10,8.30
2010,12,22,11,11,8.30
2010,12,22,11,12,8.30
2010,12,22,11,13,8.40
2010,12,22,11,14,8.40
2010,12,22,11,15,8.50
2010,12,22,11,16,8.50
2010,12,22,11,17,8.50
2010,12,22,11,18,8.60
2010,12,22,11,19,8.60
2010,12,22,11,20,8.60
2010,12,22,11,21,8.60
2010,12,22,11,22,8.60
2010,12,22,11,23,8.60
2010,12,22,11,24,8.60
2010,12,22,11,25,8.60
2010,12,22,11,26,8.60
2010,12,22,11,27,8.60
2010,12,22,11,28,8.60
2010,12,22,11,29,8.60
2010,12,22,11,30,8.70
2010,12,22,11,31,8.70
2010,12,22,11,32,8.70
2010,12,22,11,33,8.70
2010,12,22,11,34,8.70
2010,12,22,11,35,8.70
2010,12,22,11,36,8.70
2010,12,22,11,37,8.70
2010,12,22,11,38,8.70
2010,12,22,11,39,8.80
2010,12,22,11,40,8.80
2010,12,22,11,41,8.80
2010,12,22,11,42,8.80
2010,12,22,11,43,8.80
2010,12,22,11,44,8.80
2010,12,22,11,45,8.80
2010,12,22,11,46,8.80
2010,12,22,11,47,8.80
2010,12,22,11,48,8.80
2010,12,22,11,49,8.90
2010,12,22,11,50,8.90
2010,12,22,11,51,8.90
2010,12,22,11,52,8.90
2010,12,22,11,53,8.90
2010,12,22,11,54,8.90
2010,12,22,11,55,8.90
2010,12,22,11,56,8.90
2010,12,22,11,57,8.80
2010,12,22,11,58,8.80
2010,12,22,11,59,8.80
2010,12,22,12,00,8.80
2010,12,22,12,01,8.80
2010,12,22,12,02,8.90
2010,12,22,12,03,8.90
2010,12,22,12,04,8.90
2010,12,22,12,05,8.90
2010,12,22,12,06,8.90
2010,12,22,12,07,9.00
2010,12,22,12,08,9.10
2010,12,22,12,09,9.10
2010,12,22,12,10,9.10
2010,12,22,12,11,9.20
2010,12,22,12,12,9.20
2010,12,22,12,13,9.30
2010,12,22,12,14,9.30
2010,12,22,12,15,9.30
2010,12,22,12,16,9.40
2010,12,22,12,17,9.40
2010,12,22,12,18,9.50
2010,12,22,12,19,9.60
2010,12,22,12,20,9.60
2010,12,22,12,21,9.70
2010,12,22,12,22,9.70
2010,12,22,12,23,9.70
2010,12,22,12,24,9.80
2010,12,22,12,25,9.80
2010,12,22,12,26,9.90
2010,12,22,12,27,9.90
2010,12,22,12,28,9.90
2010,12,22,12,29,10.00
2010,12,22,12,30,10.10
2010,12,22,12,31,10.10
2010,12,22,12,32,10.20
2010,12,22,12,33,10.30
2010,12,22,12,34,10.30
2010,12,22,12,35,10.30
2010,12,22,12,36,10.40
2010,12,22,12,37,10.40
2010,12,22,12,38,10.40
2010,12,22,12,39,10.50
2010,12,22,12,40,10.60
2010,12,22,12,41,10.60
2010,12,22,12,42,10.60
2010,12,22,12,43,10.60
2010,12,22,12,44,10.60
2010,12,22,12,45,10.60
2010,12,22,12,46,10.60
2010,12,22,12,47,10.60
2010,12,22,12,48,10.60
2010,12,22,12,49,10.60
2010,12,22,12,50,10.60
2010,12,22,12,51,10.60
2010,12,22,12,52,10.70
2010,12,22,12,53,10.70
2010,12,22,12,54,10.80
2010,12,22,12,55,10.80
2010,12,22,12,56,10.90
2010,12,22,12,57,10.90
2010,12,22,12,58,11.00
2010,12,22,12,59,11.00
2010,12,22,13,00,11.00
2010,12,22,13,01,10.90
2010,12,22,13,02,10.90
2010,12,22,13,03,10.90
2010,12,22,13,04,10.80
2010,12,22,13,05,10.80
2010,12,22,13,06,10.70
2010,12,22,13,07,10.70
2010,12,22,13,08,10.60
2010,12,22,13,09,10.60
2010,12,22,13,10,10.60
2010,12,22,13,11,10.60
2010,12,22,13,12,10.60
2010,12,22,13,13,10.60
2010,12,22,13,14,10.60
2010,12,22,13,15,10.60
2010,12,22,13,16,10.70
2010,12,22,13,17,10.70
2010,12,22,13,18,10.70
2010,12,22,13,19,10.70
2010,12,22,13,20,10.70
2010,12,22,13,21,10.70
2010,12,22,13,22,10.60
2010,12,22,13,23,10.60
2010,12,22,13,24,10.60
2010,12,22,13,25,10.60
2010,12,22,13,26,10.60
2010,12,22,13,27,10.60
2010,12,22,13,28,10.60
2010,12,22,13,29,10.60
2010,12,22,13,30,10.60
2010,12,22,13,31,10.60
2010,12,22,13,32,10.60
2010,12,22,13,33,10.60
2010,12,22,13,34,10.70
2010,12,22,13,35,10.70
2010,12,22,13,36,10.70
2010,12,22,13,37,10.80
2010,12,22,13,38,10.80
2010,12,22,13,39,10.80
2010,12,22,13,40,10.80
2010,12,22,13,41,10.90
2010,12,22,13,42,10.90
2010,12,22,13,43,10.80
2010,12,22,13,44,10.80
2010,12,22,13,45,10.70
2010,12,22,13,46,10.70
2010,12,22,13,47,10.70
2010,12,22,13,48,10.70
2010,12,22,13,49,10.70
2010,12,22,13,50,10.70
2010,12,22,13,51,10.70
2010,12,22,13,52,10.70
2010,12,22,13,53,10.70
2010,12,22,13,54,10.60
2010,12,22,13,55,10.60
2010,12,22,13,56,10.50
2010,12,22,13,57,10.50
2010,12,22,13,58,10.50
2010,12,22,13,59,10.50
2010,12,22,14,00,10.50
2010,12,22,14,01,10.40
2010,12,22,14,02,10.40
2010,12,22,14,03,10.40
2010,12,22,14,04,10.40
2010,12,22,14,05,10.40
2010,12,22,14,06,10.40
2010,12,22,14,07,10.40
2010,12,22,14,08,10.40
2010,12,22,14,09,10.40
2010,12,22,14,10,10.30
2010,12,22,14,11,10.30
2010,12,22,14,12,10.30
2010,12,22,14,13,10.30
2010,12,22,14,14,10.30
2010,12,22,14,15,10.30
2010,12,22,14,16,10.30
2010,12,22,14,17,10.40
2010,12,22,14,18,10.40
2010,12,22,14,19,10.40
2010,12,22,14,20,10.40
2010,12,22,14,21,10.40
2010,12,22,14,22,10.40
2010,12,22,14,23,10.40
2010,12,22,14,24,10.50
2010,12,22,14,25,10.50
2010,12,22,14,26,10.60
2010,12,22,14,27,10.60
2010,12,22,14,28,10.60
2010,12,22,14,29,10.70
2010,12,22,14,30,10.60
2010,12,22,14,31,10.60
2010,12,22,14,32,10.60
2010,12,22,14,33,10.60
2010,12,22,14,34,10.50
2010,12,22,14,35,10.40
2010,12,22,14,36,10.40
2010,12,22,14,37,10.40
2010,12,22,14,38,10.40
2010,12,22,14,39,10.30
2010,12,22,14,40,10.30
2010,12,22,14,41,10.30
2010,12,22,14,42,10.20
2010,12,22,14,43,10.10
2010,12,22,14,44,10.10
2010,12,22,14,45,10.00
2010,12,22,14,46,10.00
2010,12,22,14,47,9.90
2010,12,22,14,48,9.80
2010,12,22,14,49,9.80
2010,12,22,14,50,9.80
2010,12,22,14,51,9.70
2010,12,22,14,52,9.70
2010,12,22,14,53,9.60
2010,12,22,14,54,9.60
2010,12,22,14,55,9.50
2010,12,22,14,56,9.40
2010,12,22,14,57,9.40
2010,12,22,14,58,9.30
2010,12,22,14,59,9.20
2010,12,22,15,00,9.10
2010,12,22,15,01,9.10
2010,12,22,15,02,9.00
2010,12,22,15,03,8.90
2010,12,22,15,04,8.80
2010,12,22,15,05,8.80
2010,12,22,15,06,8.70
2010,12,22,15,07,8.60
2010,12,22,15,08,8.60
2010,12,22,15,09,8.60
2010,12,22,15,10,8.50
2010,12,22,15,11,8.50
2010,12,22,15,12,8.50
2010,12,22,15,13,8.50
2010,12,22,15,14,8.40
2010,12,22,15,15,8.40
2010,12,22,15,16,8.40
2010,12,22,15,17,8.30
2010,12,22,15,18,8.20
2010,12,22,15,19,8.10
2010,12,22,15,20,8.00
2010,12,22,15,21,7.90
2010,12,22,15,22,7.80
2010,12,22,15,23,7.70
2010,12,22,15,24,7.60
2010,12,22,15,25,7.40
2010,12,22,15,26,7.30
2010,12,22,15,27,7.20
2010,12,22,15,28,7.10
2010,12,22,15,29,7.00
2010,12,22,15,30,7.00
2010,12,22,15,31,6.90
2010,12,22,15,32,6.80
2010,12,22,15,33,6.70
2010,12,22,15,34,6.70
2010,12,22,15,35,6.60
2010,12,22,15,36,6.50
2010,12,22,15,37,6.50
2010,12,22,15,38,6.40
2010,12,22,15,39,6.40
2010,12,22,15,40,6.40
2010,12,22,15,41,6.30
2010,12,22,15,42,6.30
2010,12,22,15,43,6.30
2010,12,22,15,44,6.30
2010,12,22,15,45,6.30
2010,12,22,15,46,6.20
2010,12,22,15,47,6.20
2010,12,22,15,48,6.20
2010,12,22,15,49,6.20
2010,12,22,15,50,6.20
2010,12,22,15,51,6.10
2010,12,22,15,52,6.10
2010,12,22,15,53,6.10
2010,12,22,15,54,6.00
2010,12,22,15,55,6.00
2010,12,22,15,56,5.90
2010,12,22,15,57,5.90
2010,12,22,15,58,5.90
2010,12,22,15,59,5.90
2010,12,22,16,00,5.80
2010,12,22,16,01,5.80
2010,12,22,16,02,5.70
2010,12,22,16,03,5.70
2010,12,22,16,04,5.70
2010,12,22,16,05,5.60
2010,12,22,16,06,5.60
2010,12,22,16,07,5.50
2010,12,22,16,08,5.50
2010,12,22,16,09,5.50
2010,12,22,16,10,5.40
2010,12,22,16,11,5.40
2010,12,22,16,12,5.30
2010,12,22,16,13,5.30
2010,12,22,16,14,5.20
2010,12,22,16,15,5.20
2010,12,22,16,16,5.20
2010,12,22,16,17,5.20
2010,12,22,16,18,5.20
2010,12,22,16,19,5.10
2010,12,22,16,20,5.10
2010,12,22,16,21,5.10
2010,12,22,16,22,5.10
2010,12,22,16,23,5.00
2010,12,22,16,24,5.00
2010,12,22,16,25,4.90
2010,12,22,16,26,4.90
2010,12,22,16,27,4.80
2010,12,22,16,28,4.80
2010,12,22,16,29,4.80
2010,12,22,16,30,4.70
2010,12,22,16,31,4.70
2010,12,22,16,32,4.70
2010,12,22,16,33,4.60
2010,12,22,16,34,4.60
2010,12,22,16,35,4.60
2010,12,22,16,36,4.50
2010,12,22,16,37,4.50
2010,12,22,16,38,4.40
2010,12,22,16,39,4.40
2010,12,22,16,40,4.40
2010,12,22,16,41,4.30
2010,12,22,16,42,4.30
2010,12,22,16,43,4.30
2010,12,22,16,44,4.30
2010,12,22,16,45,4.20
2010,12,22,16,46,4.20
2010,12,22,16,47,4.20
2010,12,22,16,48,4.10
2010,12,22,16,49,4.10
2010,12,22,16,50,4.10
2010,12,22,16,51,4.00
2010,12,22,16,52,4.00
2010,12,22,16,53,3.90
2010,12,22,16,54,3.90
2010,12,22,16,55,3.90
2010,12,22,16,56,3.80
2010,12,22,16,57,3.80
2010,12,22,16,58,3.80
2010,12,22,16,59,3.80
2010,12,22,17,00,3.70
2010,12,22,17,01,3.70
2010,12,22,17,02,3.60
2010,12,22,17,03,3.60
2010,12,22,17,04,3.60
2010,12,22,17,05,3.50
2010,12,22,17,06,3.50
2010,12,22,17,07,3.50
2010,12,22,17,08,3.40
2010,12,22,17,09,3.40
2010,12,22,17,10,3.40
2010,12,22,17,11,3.30
2010,12,22,17,12,3.30
2010,12,22,17,13,3.30
2010,12,22,17,14,3.30
2010,12,22,17,15,3.20
2010,12,22,17,16,3.20
2010,12,22,17,17,3.20
2010,12,22,17,18,3.20
2010,12,22,17,19,3.20
2010,12,22,17,20,3.10
2010,12,22,17,21,3.10
2010,12,22,17,22,3.10
2010,12,22,17,23,3.10
2010,12,22,17,24,3.10
2010,12,22,17,25,3.10
2010,12,22,17,26,3.10
2010,12,22,17,27,3.10
2010,12,22,17,28,3.10
2010,12,22,17,29,3.10
2010,12,22,17,30,3.00
2010,12,22,17,31,3.00
2010,12,22,17,32,2.90
2010,12,22,17,33,2.90
2010,12,22,17,34,2.90
2010,12,22,17,35,2.80
2010,12,22,17,36,2.80
2010,12,22,17,37,2.70
2010,12,22,17,38,2.70
2010,12,22,17,39,2.70
2010,12,22,17,40,2.70
2010,12,22,17,41,2.60
2010,12,22,17,42,2.60
2010,12,22,17,43,2.60
2010,12,22,17,44,2.60
2010,12,22,17,45,2.50
2010,12,22,17,46,2.50
2010,12,22,17,47,2.50
2010,12,22,17,48,2.40
2010,12,22,17,49,2.40
2010,12,22,17,50,2.40
2010,12,22,17,51,2.40
2010,12,22,17,52,2.40
2010,12,22,17,53,2.40
2010,12,22,17,54,2.40
2010,12,22,17,55,2.40
2010,12,22,17,56,2.40
2010,12,22,17,57,2.30
2010,12,22,17,58,2.30
2010,12,22,17,59,2.30
2010,12,22,18,00,2.30